{"data":{"norad_id":49949,"epoch":"2026-09-20T03:55:33.447648Z","epoch_age_seconds":138450,"freshness":"FRESH","line1":"1 49949U 21120A   26263.16358157  .00027103  00000+0  36272-3 0  9991","line2":"2 49949  41.9931 201.2632 0017738 208.4200 151.5680 15.57243820269686","mean_motion":15.5724382,"eccentricity":0.0017738,"inclination_deg":41.9931,"raan_deg":201.2632,"arg_perigee_deg":208.42,"mean_anomaly_deg":151.568,"bstar":0.00036272,"rev_number":26968,"period_min":92.471068531837,"perigee_km":383.62263265315,"apogee_km":407.65327668233,"semimajor_km":6773.7749546677,"source":"CELESTRAK","updated_at":"2026-09-21T09:00:08.140820Z"}}